Location: Narrabri
(30.3170°S, 149.7830°E)
Time: 23:18:36
(UTC+11:00)

Vanguard 1 - All Passes

Search period start: 23 February 2018 00:00
Search period end: 05 March 2018 00:00
Orbit: 650 x 3833 km, 34.2° (Epoch: 22 February)

Date Brightness Start Highest point End Pass type
(mag) Time Alt. Az. Time Alt. Az. Time Alt. Az.
23 Feb - 00:51:28 10° N 00:57:17 28° NE 01:06:28 10° E visible
23 Feb - 03:08:53 10° WNW 03:17:50 84° NNE 03:35:13 10° ESE visible
23 Feb - 05:29:31 10° W 05:42:37 77° S 06:05:11 10° E visible
23 Feb - 07:51:44 10° WSW 08:09:54 85° NNW 08:33:57 10° ENE daylight
23 Feb - 10:16:13 10° WSW 10:36:42 50° NW 10:57:07 10° NNE daylight
23 Feb - 12:49:37 10° W 13:00:51 16° NW 13:11:05 10° NNW daylight
24 Feb - 01:11:22 10° NNW 01:17:44 40° NE 01:28:43 10° ESE visible
24 Feb - 03:29:49 10° WNW 03:39:09 86° SSW 03:57:14 10° ESE visible
24 Feb - 05:50:44 10° W 06:04:26 79° S 06:27:26 10° E visible
24 Feb - 08:13:04 10° WSW 08:31:36 77° NNW 08:55:20 10° NE daylight
24 Feb - 10:38:19 10° WSW 10:57:50 40° NW 11:17:03 10° NNE daylight
25 Feb - 01:31:40 10° NW 01:38:22 54° NE 01:50:41 10° ESE visible
25 Feb - 03:50:52 10° W 04:00:37 80° S 04:19:21 10° ESE visible
25 Feb - 06:11:57 10° WSW 06:26:14 82° SSE 06:49:35 10° ENE visible
25 Feb - 08:34:26 10° WSW 08:53:10 68° NNW 09:16:25 10° NE daylight
25 Feb - 11:00:54 10° W 11:18:53 31° NW 11:36:29 10° N daylight
25 Feb - 23:36:47 10° NNE 23:39:59 14° NE 23:43:59 10° E night (unlit)
26 Feb - 01:52:13 10° NW 01:59:12 70° NNE 02:12:32 10° ESE visible
26 Feb - 04:11:57 10° W 04:22:11 76° S 04:41:33 10° E visible
26 Feb - 06:33:08 10° WSW 06:47:58 88° SSE 07:11:34 10° ENE daylight
26 Feb - 08:55:54 10° WSW 09:14:37 58° NW 09:37:10 10° NE daylight
26 Feb - 11:24:20 10° W 11:39:56 23° NW 11:55:08 10° N daylight
26 Feb - 23:55:45 10° N 00:00:20 24° NE 00:06:57 10° E visible
27 Feb - 02:13:00 10° WNW 02:20:16 85° NNE 02:34:22 10° ESE visible
27 Feb - 04:33:05 10° W 04:43:48 76° S 05:03:49 10° E visible
27 Feb - 06:54:19 10° WSW 07:09:38 84° NNW 07:33:19 10° ENE daylight
27 Feb - 09:17:34 10° WSW 09:35:59 48° NW 09:57:33 10° NNE daylight
27 Feb - 11:49:29 10° W 12:01:02 16° NW 12:12:20 10° NNW daylight
28 Feb - 00:15:37 10° NNW 00:20:47 36° NE 00:29:05 10° ESE visible
28 Feb - 02:33:54 10° WNW 02:41:29 84° SSW 02:56:16 10° ESE visible
28 Feb - 04:54:12 10° WSW 05:05:25 78° S 05:26:05 10° E visible
28 Feb - 07:15:31 10° WSW 07:31:13 75° NNW 07:54:48 10° NE daylight
28 Feb - 09:39:34 10° W 09:57:17 39° NW 10:17:29 10° NNE daylight
01 Mar - 00:35:54 10° NW 00:41:25 51° NNE 00:50:55 10° ESE visible
01 Mar - 02:54:54 10° W 03:02:49 77° S 03:18:15 10° ESE visible
01 Mar - 05:15:18 10° WSW 05:27:01 82° SSE 05:48:17 10° ENE visible
01 Mar - 07:36:46 10° WSW 07:52:44 66° NNW 08:15:57 10° NE daylight
01 Mar - 10:02:03 10° W 10:18:32 30° NW 10:36:52 10° N daylight
01 Mar - 22:41:29 10° NNE 22:43:12 11° NE 22:45:07 10° ENE night (unlit)
02 Mar - 00:56:29 10° WNW 01:02:14 70° NNE 01:12:36 10° ESE visible
02 Mar - 03:15:57 10° W 03:24:15 73° S 03:40:22 10° E visible
02 Mar - 05:36:23 10° WSW 05:48:35 89° SSE 06:10:19 10° ENE visible
02 Mar - 07:58:09 10° WSW 08:14:12 55° NNW 08:36:44 10° NE daylight
02 Mar - 10:25:23 10° W 10:39:49 23° NW 10:55:26 10° N daylight
02 Mar - 23:00:01 10° N 23:03:39 20° NE 23:08:23 10° E night (unlit)
03 Mar - 01:17:15 10° WNW 01:23:14 87° NNE 01:34:16 10° ESE visible
03 Mar - 03:37:00 10° W 03:45:42 73° S 04:02:33 10° E visible
03 Mar - 05:57:27 10° WSW 06:10:05 83° NNW 06:32:07 10° ENE visible
03 Mar - 08:19:44 10° W 08:35:39 46° NW 08:57:07 10° NNE daylight
03 Mar - 10:50:30 10° WNW 11:01:11 16° NW 11:12:25 10° NNW daylight
03 Mar - 23:19:50 10° NNW 23:24:11 32° NE 23:30:25 10° E night (unlit)
04 Mar - 01:38:09 10° W 01:44:23 80° SSW 01:56:00 10° ESE visible
04 Mar - 03:58:02 10° WSW 04:07:09 76° S 04:24:45 10° E visible
04 Mar - 06:18:33 10° WSW 06:31:33 73° NNW 06:53:37 10° NE visible
04 Mar - 08:41:39 10° W 08:57:03 37° NW 09:17:02 10° NNE daylight
04 Mar - 23:40:09 10° NW 23:44:51 49° NNE 23:52:05 10° ESE night (unlit)
